#datetime,building,power
2023-05-03T00:00:00,mnr,9.53
2023-05-03T00:01:00,mnr,8.97
2023-05-03T00:02:00,mnr,9.01
2023-05-03T00:03:00,mnr,8.82
2023-05-03T00:04:00,mnr,8.74
2023-05-03T00:05:00,mnr,8.79
2023-05-03T00:06:00,mnr,8.76
2023-05-03T00:07:00,mnr,8.25
2023-05-03T00:08:00,mnr,8.10
2023-05-03T00:09:00,mnr,8.11
2023-05-03T00:10:00,mnr,8.17
2023-05-03T00:11:00,mnr,8.25
2023-05-03T00:12:00,mnr,7.81
2023-05-03T00:13:00,mnr,7.87
2023-05-03T00:14:00,mnr,8.54
2023-05-03T00:15:00,mnr,8.49
2023-05-03T00:16:00,mnr,9.17
2023-05-03T00:17:00,mnr,8.60
2023-05-03T00:18:00,mnr,8.63
2023-05-03T00:19:00,mnr,8.58
2023-05-03T00:20:00,mnr,9.57
2023-05-03T00:21:00,mnr,8.95
2023-05-03T00:22:00,mnr,8.52
2023-05-03T00:23:00,mnr,9.63
2023-05-03T00:24:00,mnr,8.74
2023-05-03T00:25:00,mnr,8.46
2023-05-03T00:26:00,mnr,8.51
2023-05-03T00:27:00,mnr,17.71
2023-05-03T00:28:00,mnr,8.76
2023-05-03T00:29:00,mnr,8.43
2023-05-03T00:30:00,mnr,8.02
2023-05-03T00:31:00,mnr,8.70
2023-05-03T00:32:00,mnr,7.65
2023-05-03T00:33:00,mnr,7.56
2023-05-03T00:34:00,mnr,7.55
2023-05-03T00:35:00,mnr,7.50
2023-05-03T00:36:00,mnr,7.49
2023-05-03T00:37:00,mnr,7.67
2023-05-03T00:38:00,mnr,8.43
2023-05-03T00:39:00,mnr,8.42
2023-05-03T00:40:00,mnr,8.42
2023-05-03T00:41:00,mnr,8.42
2023-05-03T00:42:00,mnr,8.42
2023-05-03T00:43:00,mnr,8.35
2023-05-03T00:44:00,mnr,7.95
2023-05-03T00:45:00,mnr,7.85
2023-05-03T00:46:00,mnr,7.83
2023-05-03T00:47:00,mnr,7.61
2023-05-03T00:48:00,mnr,7.93
2023-05-03T00:49:00,mnr,7.79
2023-05-03T00:50:00,mnr,7.50
2023-05-03T00:51:00,mnr,7.49
2023-05-03T00:52:00,mnr,7.95
2023-05-03T00:53:00,mnr,8.82
2023-05-03T00:54:00,mnr,8.86
2023-05-03T00:55:00,mnr,9.33
2023-05-03T00:56:00,mnr,8.82
2023-05-03T00:57:00,mnr,9.38
2023-05-03T00:58:00,mnr,8.83
2023-05-03T00:59:00,mnr,8.75
2023-05-03T01:00:00,mnr,9.24
2023-05-03T01:01:00,mnr,8.70
2023-05-03T01:02:00,mnr,9.32
2023-05-03T01:03:00,mnr,8.62
2023-05-03T01:04:00,mnr,8.48
2023-05-03T01:05:00,mnr,8.55
2023-05-03T01:06:00,mnr,8.70
2023-05-03T01:07:00,mnr,9.43
2023-05-03T01:08:00,mnr,8.72
2023-05-03T01:09:00,mnr,8.79
2023-05-03T01:10:00,mnr,8.69
2023-05-03T01:11:00,mnr,8.67
2023-05-03T01:12:00,mnr,8.63
2023-05-03T01:13:00,mnr,8.56
2023-05-03T01:14:00,mnr,9.01
2023-05-03T01:15:00,mnr,7.25
2023-05-03T01:16:00,mnr,7.31
2023-05-03T01:17:00,mnr,6.84
2023-05-03T01:18:00,mnr,6.62
2023-05-03T01:19:00,mnr,7.10
2023-05-03T01:20:00,mnr,6.50
2023-05-03T01:21:00,mnr,7.25
2023-05-03T01:22:00,mnr,8.70
2023-05-03T01:23:00,mnr,8.07
2023-05-03T01:24:00,mnr,8.55
2023-05-03T01:25:00,mnr,8.02
2023-05-03T01:26:00,mnr,8.03
2023-05-03T01:27:00,mnr,8.61
2023-05-03T01:28:00,mnr,8.38
2023-05-03T01:29:00,mnr,8.01
2023-05-03T01:30:00,mnr,7.99
2023-05-03T01:31:00,mnr,8.04
2023-05-03T01:32:00,mnr,8.02
2023-05-03T01:33:00,mnr,7.93
2023-05-03T01:34:00,mnr,8.61
2023-05-03T01:35:00,mnr,7.99
2023-05-03T01:36:00,mnr,8.00
2023-05-03T01:37:00,mnr,7.72
2023-05-03T01:38:00,mnr,7.68
2023-05-03T01:39:00,mnr,7.23
2023-05-03T01:40:00,mnr,7.20
2023-05-03T01:41:00,mnr,7.18
2023-05-03T01:42:00,mnr,7.16
2023-05-03T01:43:00,mnr,7.31
2023-05-03T01:44:00,mnr,7.27
2023-05-03T01:45:00,mnr,7.27
2023-05-03T01:46:00,mnr,7.79
2023-05-03T01:47:00,mnr,7.58
2023-05-03T01:48:00,mnr,7.26
2023-05-03T01:49:00,mnr,7.37
2023-05-03T01:50:00,mnr,8.09
2023-05-03T01:51:00,mnr,7.31
2023-05-03T01:52:00,mnr,7.35
2023-05-03T01:53:00,mnr,7.30
2023-05-03T01:54:00,mnr,7.28
2023-05-03T01:55:00,mnr,7.24
2023-05-03T01:56:00,mnr,7.23
2023-05-03T01:57:00,mnr,7.24
2023-05-03T01:58:00,mnr,7.13
2023-05-03T01:59:00,mnr,6.94
2023-05-03T02:00:00,mnr,7.23
2023-05-03T02:01:00,mnr,17.10
2023-05-03T02:02:00,mnr,7.59
2023-05-03T02:03:00,mnr,7.10
2023-05-03T02:04:00,mnr,8.60
2023-05-03T02:05:00,mnr,8.60
2023-05-03T02:06:00,mnr,8.60
2023-05-03T02:07:00,mnr,8.51
2023-05-03T02:08:00,mnr,8.59
2023-05-03T02:09:00,mnr,8.68
2023-05-03T02:10:00,mnr,9.88
2023-05-03T02:11:00,mnr,8.70
2023-05-03T02:12:00,mnr,8.26
2023-05-03T02:13:00,mnr,8.22
2023-05-03T02:14:00,mnr,8.85
2023-05-03T02:15:00,mnr,8.26
2023-05-03T02:16:00,mnr,8.00
2023-05-03T02:17:00,mnr,7.30
2023-05-03T02:18:00,mnr,6.76
2023-05-03T02:19:00,mnr,7.50
2023-05-03T02:20:00,mnr,7.19
2023-05-03T02:21:00,mnr,7.29
2023-05-03T02:22:00,mnr,7.20
2023-05-03T02:23:00,mnr,7.18
2023-05-03T02:24:00,mnr,7.73
2023-05-03T02:25:00,mnr,7.83
2023-05-03T02:26:00,mnr,7.22
2023-05-03T02:27:00,mnr,7.20
2023-05-03T02:28:00,mnr,8.02
2023-05-03T02:29:00,mnr,7.29
2023-05-03T02:30:00,mnr,7.15
2023-05-03T02:31:00,mnr,7.16
2023-05-03T02:32:00,mnr,7.18
2023-05-03T02:33:00,mnr,6.66
2023-05-03T02:34:00,mnr,6.60
2023-05-03T02:35:00,mnr,7.06
2023-05-03T02:36:00,mnr,6.54
2023-05-03T02:37:00,mnr,6.48
2023-05-03T02:38:00,mnr,6.51
2023-05-03T02:39:00,mnr,6.74
2023-05-03T02:40:00,mnr,6.50
2023-05-03T02:41:00,mnr,5.93
2023-05-03T02:42:00,mnr,6.13
2023-05-03T02:43:00,mnr,6.57
2023-05-03T02:44:00,mnr,5.84
2023-05-03T02:45:00,mnr,5.91
2023-05-03T02:46:00,mnr,5.65
2023-05-03T02:47:00,mnr,5.68
2023-05-03T02:48:00,mnr,5.67
2023-05-03T02:49:00,mnr,5.68
2023-05-03T02:50:00,mnr,5.71
2023-05-03T02:51:00,mnr,5.72
2023-05-03T02:52:00,mnr,5.69
2023-05-03T02:53:00,mnr,5.68
2023-05-03T02:54:00,mnr,5.76
2023-05-03T02:55:00,mnr,6.14
2023-05-03T02:56:00,mnr,6.02
2023-05-03T02:57:00,mnr,6.20
2023-05-03T02:58:00,mnr,6.22
2023-05-03T02:59:00,mnr,6.17
2023-05-03T03:00:00,mnr,6.23
2023-05-03T03:01:00,mnr,7.54
2023-05-03T03:02:00,mnr,6.32
2023-05-03T03:03:00,mnr,7.03
2023-05-03T03:04:00,mnr,6.30
2023-05-03T03:05:00,mnr,6.30
2023-05-03T03:06:00,mnr,6.28
2023-05-03T03:07:00,mnr,15.74
2023-05-03T03:08:00,mnr,8.50
2023-05-03T03:09:00,mnr,7.67
2023-05-03T03:10:00,mnr,7.62
2023-05-03T03:11:00,mnr,7.71
2023-05-03T03:12:00,mnr,7.73
2023-05-03T03:13:00,mnr,7.63
2023-05-03T03:14:00,mnr,7.48
2023-05-03T03:15:00,mnr,7.43
2023-05-03T03:16:00,mnr,7.47
2023-05-03T03:17:00,mnr,7.28
2023-05-03T03:18:00,mnr,7.39
2023-05-03T03:19:00,mnr,7.50
2023-05-03T03:20:00,mnr,7.45
2023-05-03T03:21:00,mnr,7.92
2023-05-03T03:22:00,mnr,6.84
2023-05-03T03:23:00,mnr,6.91
2023-05-03T03:24:00,mnr,6.83
2023-05-03T03:25:00,mnr,6.28
2023-05-03T03:26:00,mnr,6.25
2023-05-03T03:27:00,mnr,6.23
2023-05-03T03:28:00,mnr,6.26
2023-05-03T03:29:00,mnr,6.84
2023-05-03T03:30:00,mnr,6.94
2023-05-03T03:31:00,mnr,6.35
2023-05-03T03:32:00,mnr,6.91
2023-05-03T03:33:00,mnr,6.34
2023-05-03T03:34:00,mnr,6.49
2023-05-03T03:35:00,mnr,6.87
2023-05-03T03:36:00,mnr,6.15
2023-05-03T03:37:00,mnr,6.08
2023-05-03T03:38:00,mnr,6.06
2023-05-03T03:39:00,mnr,6.11
2023-05-03T03:40:00,mnr,6.11
2023-05-03T03:41:00,mnr,6.14
2023-05-03T03:42:00,mnr,6.08
2023-05-03T03:43:00,mnr,6.16
2023-05-03T03:44:00,mnr,6.08
2023-05-03T03:45:00,mnr,5.50
2023-05-03T03:46:00,mnr,5.52
2023-05-03T03:47:00,mnr,4.85
2023-05-03T03:48:00,mnr,4.84
2023-05-03T03:49:00,mnr,4.77
2023-05-03T03:50:00,mnr,4.95
2023-05-03T03:51:00,mnr,4.81
2023-05-03T03:52:00,mnr,4.82
2023-05-03T03:53:00,mnr,4.94
2023-05-03T03:54:00,mnr,4.92
2023-05-03T03:55:00,mnr,4.92
2023-05-03T03:56:00,mnr,4.84
2023-05-03T03:57:00,mnr,4.90
2023-05-03T03:58:00,mnr,4.81
2023-05-03T03:59:00,mnr,4.73
2023-05-03T04:00:00,mnr,5.01
2023-05-03T04:01:00,mnr,4.94
2023-05-03T04:02:00,mnr,4.79
2023-05-03T04:03:00,mnr,4.76
2023-05-03T04:04:00,mnr,4.80
2023-05-03T04:05:00,mnr,4.76
2023-05-03T04:06:00,mnr,4.72
2023-05-03T04:07:00,mnr,4.90
2023-05-03T04:08:00,mnr,4.86
2023-05-03T04:09:00,mnr,4.72
2023-05-03T04:10:00,mnr,4.81
2023-05-03T04:11:00,mnr,4.67
2023-05-03T04:12:00,mnr,4.71
2023-05-03T04:13:00,mnr,5.44
2023-05-03T04:14:00,mnr,4.81
2023-05-03T04:15:00,mnr,4.76
2023-05-03T04:16:00,mnr,4.81
2023-05-03T04:17:00,mnr,4.67
2023-05-03T04:18:00,mnr,5.95
2023-05-03T04:19:00,mnr,4.77
2023-05-03T04:20:00,mnr,4.81
2023-05-03T04:21:00,mnr,4.82
2023-05-03T04:22:00,mnr,4.80
2023-05-03T04:23:00,mnr,4.83
2023-05-03T04:24:00,mnr,4.77
2023-05-03T04:25:00,mnr,5.07
2023-05-03T04:26:00,mnr,4.86
2023-05-03T04:27:00,mnr,4.80
2023-05-03T04:28:00,mnr,4.77
2023-05-03T04:29:00,mnr,4.85
2023-05-03T04:30:00,mnr,5.24
2023-05-03T04:31:00,mnr,5.11
2023-05-03T04:32:00,mnr,5.12
2023-05-03T04:33:00,mnr,5.49
2023-05-03T04:34:00,mnr,5.11
2023-05-03T04:35:00,mnr,5.11
2023-05-03T04:36:00,mnr,5.18
2023-05-03T04:37:00,mnr,5.22
2023-05-03T04:38:00,mnr,5.29
2023-05-03T04:39:00,mnr,5.27
2023-05-03T04:40:00,mnr,5.21
2023-05-03T04:41:00,mnr,5.27
2023-05-03T04:42:00,mnr,5.29
2023-05-03T04:43:00,mnr,6.01
2023-05-03T04:44:00,mnr,5.35
2023-05-03T04:45:00,mnr,5.30
2023-05-03T04:46:00,mnr,5.35
2023-05-03T04:47:00,mnr,5.32
2023-05-03T04:48:00,mnr,5.23
2023-05-03T04:49:00,mnr,5.29
2023-05-03T04:50:00,mnr,5.51
2023-05-03T04:51:00,mnr,5.32
2023-05-03T04:52:00,mnr,5.39
2023-05-03T04:53:00,mnr,5.33
2023-05-03T04:54:00,mnr,5.31
2023-05-03T04:55:00,mnr,5.28
2023-05-03T04:56:00,mnr,5.24
2023-05-03T04:57:00,mnr,5.32
2023-05-03T04:58:00,mnr,5.23
2023-05-03T04:59:00,mnr,5.29
2023-05-03T05:00:00,mnr,5.38
2023-05-03T05:01:00,mnr,5.51
2023-05-03T05:02:00,mnr,5.46
2023-05-03T05:03:00,mnr,6.07
2023-05-03T05:04:00,mnr,5.83
2023-05-03T05:05:00,mnr,5.30
2023-05-03T05:06:00,mnr,5.29
2023-05-03T05:07:00,mnr,5.66
2023-05-03T05:08:00,mnr,6.02
2023-05-03T05:09:00,mnr,5.27
2023-05-03T05:10:00,mnr,5.24
2023-05-03T05:11:00,mnr,5.32
2023-05-03T05:12:00,mnr,5.26
2023-05-03T05:13:00,mnr,5.22
2023-05-03T05:14:00,mnr,5.21
2023-05-03T05:15:00,mnr,5.18
2023-05-03T05:16:00,mnr,5.33
2023-05-03T05:17:00,mnr,5.21
2023-05-03T05:18:00,mnr,5.22
2023-05-03T05:19:00,mnr,6.26
2023-05-03T05:20:00,mnr,5.28
2023-05-03T05:21:00,mnr,5.31
2023-05-03T05:22:00,mnr,4.80
2023-05-03T05:23:00,mnr,4.76
2023-05-03T05:24:00,mnr,4.73
2023-05-03T05:25:00,mnr,4.81
2023-05-03T05:26:00,mnr,4.95
2023-05-03T05:27:00,mnr,4.93
2023-05-03T05:28:00,mnr,5.11
2023-05-03T05:29:00,mnr,4.97
2023-05-03T05:30:00,mnr,4.91
2023-05-03T05:31:00,mnr,4.87
2023-05-03T05:32:00,mnr,5.33
2023-05-03T05:33:00,mnr,4.87
2023-05-03T05:34:00,mnr,4.91
2023-05-03T05:35:00,mnr,5.02
2023-05-03T05:36:00,mnr,5.01
2023-05-03T05:37:00,mnr,4.89
2023-05-03T05:38:00,mnr,4.80
2023-05-03T05:39:00,mnr,4.89
2023-05-03T05:40:00,mnr,4.86
2023-05-03T05:41:00,mnr,4.85
2023-05-03T05:42:00,mnr,7.27
2023-05-03T05:43:00,mnr,6.54
2023-05-03T05:44:00,mnr,6.57
2023-05-03T05:45:00,mnr,6.50
2023-05-03T05:46:00,mnr,6.52
2023-05-03T05:47:00,mnr,6.38
2023-05-03T05:48:00,mnr,6.43
2023-05-03T05:49:00,mnr,6.41
2023-05-03T05:50:00,mnr,6.38
2023-05-03T05:51:00,mnr,6.42
2023-05-03T05:52:00,mnr,6.41
2023-05-03T05:53:00,mnr,6.35
2023-05-03T05:54:00,mnr,6.33
2023-05-03T05:55:00,mnr,6.29
2023-05-03T05:56:00,mnr,6.45
2023-05-03T05:57:00,mnr,6.43
2023-05-03T05:58:00,mnr,6.38
2023-05-03T05:59:00,mnr,6.32
2023-05-03T06:00:00,mnr,6.32
2023-05-03T06:01:00,mnr,6.48
2023-05-03T06:02:00,mnr,7.27
2023-05-03T06:03:00,mnr,9.22
2023-05-03T06:04:00,mnr,10.01
2023-05-03T06:05:00,mnr,10.66
2023-05-03T06:06:00,mnr,13.07
2023-05-03T06:07:00,mnr,14.93
2023-05-03T06:08:00,mnr,14.81
2023-05-03T06:09:00,mnr,14.67
2023-05-03T06:10:00,mnr,13.42
2023-05-03T06:11:00,mnr,13.27
2023-05-03T06:12:00,mnr,13.24
2023-05-03T06:13:00,mnr,13.30
2023-05-03T06:14:00,mnr,13.20
2023-05-03T06:15:00,mnr,13.33
2023-05-03T06:16:00,mnr,13.27
2023-05-03T06:17:00,mnr,14.05
2023-05-03T06:18:00,mnr,14.11
2023-05-03T06:19:00,mnr,14.10
2023-05-03T06:20:00,mnr,14.56
2023-05-03T06:21:00,mnr,14.92
2023-05-03T06:22:00,mnr,15.40
2023-05-03T06:23:00,mnr,14.56
2023-05-03T06:24:00,mnr,14.54
2023-05-03T06:25:00,mnr,14.53
2023-05-03T06:26:00,mnr,14.82
2023-05-03T06:27:00,mnr,14.36
2023-05-03T06:28:00,mnr,14.38
2023-05-03T06:29:00,mnr,14.29
2023-05-03T06:30:00,mnr,15.43
2023-05-03T06:31:00,mnr,14.68
2023-05-03T06:32:00,mnr,14.69
2023-05-03T06:33:00,mnr,14.61
2023-05-03T06:34:00,mnr,15.69
2023-05-03T06:35:00,mnr,14.47
2023-05-03T06:36:00,mnr,15.07
2023-05-03T06:37:00,mnr,14.59
2023-05-03T06:38:00,mnr,14.38
2023-05-03T06:39:00,mnr,14.25
2023-05-03T06:40:00,mnr,14.23
2023-05-03T06:41:00,mnr,14.33
2023-05-03T06:42:00,mnr,14.26
2023-05-03T06:43:00,mnr,14.31
2023-05-03T06:44:00,mnr,14.35
2023-05-03T06:45:00,mnr,14.85
2023-05-03T06:46:00,mnr,14.46
2023-05-03T06:47:00,mnr,14.47
2023-05-03T06:48:00,mnr,14.37
2023-05-03T06:49:00,mnr,14.24
2023-05-03T06:50:00,mnr,14.63
2023-05-03T06:51:00,mnr,14.30
2023-05-03T06:52:00,mnr,15.21
2023-05-03T06:53:00,mnr,15.18
2023-05-03T06:54:00,mnr,13.65
2023-05-03T06:55:00,mnr,14.12
2023-05-03T06:56:00,mnr,14.14
2023-05-03T06:57:00,mnr,13.50
2023-05-03T06:58:00,mnr,13.46
2023-05-03T06:59:00,mnr,13.99
2023-05-03T07:00:00,mnr,13.21
2023-05-03T07:01:00,mnr,13.27
2023-05-03T07:02:00,mnr,13.94
2023-05-03T07:03:00,mnr,13.76
2023-05-03T07:04:00,mnr,13.78
2023-05-03T07:05:00,mnr,13.84
2023-05-03T07:06:00,mnr,13.73
2023-05-03T07:07:00,mnr,13.70
2023-05-03T07:08:00,mnr,13.46
2023-05-03T07:09:00,mnr,13.37
2023-05-03T07:10:00,mnr,13.03
2023-05-03T07:11:00,mnr,13.61
2023-05-03T07:12:00,mnr,12.87
2023-05-03T07:13:00,mnr,12.88
2023-05-03T07:14:00,mnr,13.50
2023-05-03T07:15:00,mnr,12.29
2023-05-03T07:16:00,mnr,12.61
2023-05-03T07:17:00,mnr,13.08
2023-05-03T07:18:00,mnr,12.87
2023-05-03T07:19:00,mnr,13.00
2023-05-03T07:20:00,mnr,13.00
2023-05-03T07:21:00,mnr,13.83
2023-05-03T07:22:00,mnr,13.73
2023-05-03T07:23:00,mnr,14.82
2023-05-03T07:24:00,mnr,13.73
2023-05-03T07:25:00,mnr,13.77
2023-05-03T07:26:00,mnr,14.35
2023-05-03T07:27:00,mnr,13.71
2023-05-03T07:28:00,mnr,13.71
2023-05-03T07:29:00,mnr,13.73
2023-05-03T07:30:00,mnr,13.69
2023-05-03T07:31:00,mnr,14.62
2023-05-03T07:32:00,mnr,12.98
2023-05-03T07:33:00,mnr,13.04
2023-05-03T07:34:00,mnr,13.31
2023-05-03T07:35:00,mnr,13.12
2023-05-03T07:36:00,mnr,13.11
2023-05-03T07:37:00,mnr,13.06
2023-05-03T07:38:00,mnr,12.51
2023-05-03T07:39:00,mnr,12.49
2023-05-03T07:40:00,mnr,12.50
2023-05-03T07:41:00,mnr,12.27
2023-05-03T07:42:00,mnr,12.93
2023-05-03T07:43:00,mnr,12.17
2023-05-03T07:44:00,mnr,13.40
2023-05-03T07:45:00,mnr,14.07
2023-05-03T07:46:00,mnr,14.10
2023-05-03T07:47:00,mnr,14.18
2023-05-03T07:48:00,mnr,13.92
2023-05-03T07:49:00,mnr,13.95
2023-05-03T07:50:00,mnr,13.88
2023-05-03T07:51:00,mnr,14.96
2023-05-03T07:52:00,mnr,14.10
2023-05-03T07:53:00,mnr,14.21
2023-05-03T07:54:00,mnr,14.38
2023-05-03T07:55:00,mnr,14.44
2023-05-03T07:56:00,mnr,15.25
2023-05-03T07:57:00,mnr,14.74
2023-05-03T07:58:00,mnr,14.33
2023-05-03T07:59:00,mnr,14.40
2023-05-03T08:00:00,mnr,16.65
2023-05-03T08:01:00,mnr,16.09
2023-05-03T08:02:00,mnr,15.34
2023-05-03T08:03:00,mnr,14.47
2023-05-03T08:04:00,mnr,14.22
2023-05-03T08:05:00,mnr,14.44
2023-05-03T08:06:00,mnr,14.19
2023-05-03T08:07:00,mnr,13.75
2023-05-03T08:08:00,mnr,13.84
2023-05-03T08:09:00,mnr,14.44
2023-05-03T08:10:00,mnr,13.74
2023-05-03T08:11:00,mnr,14.19
2023-05-03T08:12:00,mnr,13.86
2023-05-03T08:13:00,mnr,13.75
2023-05-03T08:14:00,mnr,14.09
2023-05-03T08:15:00,mnr,13.77
2023-05-03T08:16:00,mnr,13.79
2023-05-03T08:17:00,mnr,14.37
2023-05-03T08:18:00,mnr,13.81
2023-05-03T08:19:00,mnr,15.64
2023-05-03T08:20:00,mnr,15.59
2023-05-03T08:21:00,mnr,15.33
2023-05-03T08:22:00,mnr,15.37
2023-05-03T08:23:00,mnr,15.41
2023-05-03T08:24:00,mnr,15.43
2023-05-03T08:25:00,mnr,15.57
2023-05-03T08:26:00,mnr,16.20
2023-05-03T08:27:00,mnr,15.56
2023-05-03T08:28:00,mnr,16.48
2023-05-03T08:29:00,mnr,16.47
2023-05-03T08:30:00,mnr,16.66
2023-05-03T08:31:00,mnr,16.67
2023-05-03T08:32:00,mnr,18.14
2023-05-03T08:33:00,mnr,16.83
2023-05-03T08:34:00,mnr,16.73
2023-05-03T08:35:00,mnr,16.99
2023-05-03T08:36:00,mnr,16.74
2023-05-03T08:37:00,mnr,17.35
2023-05-03T08:38:00,mnr,17.95
2023-05-03T08:39:00,mnr,18.03
2023-05-03T08:40:00,mnr,17.26
2023-05-03T08:41:00,mnr,26.16
2023-05-03T08:42:00,mnr,17.12
2023-05-03T08:43:00,mnr,16.73
2023-05-03T08:44:00,mnr,17.89
2023-05-03T08:45:00,mnr,16.85
2023-05-03T08:46:00,mnr,16.85
2023-05-03T08:47:00,mnr,13.10
2023-05-03T08:48:00,mnr,17.03
2023-05-03T08:49:00,mnr,17.70
2023-05-03T08:50:00,mnr,17.32
2023-05-03T08:51:00,mnr,18.97
2023-05-03T08:52:00,mnr,17.27
2023-05-03T08:53:00,mnr,17.60
2023-05-03T08:54:00,mnr,17.17
2023-05-03T08:55:00,mnr,17.05
2023-05-03T08:56:00,mnr,16.96
2023-05-03T08:57:00,mnr,17.46
2023-05-03T08:58:00,mnr,16.83
2023-05-03T08:59:00,mnr,16.88
2023-05-03T09:00:00,mnr,16.96
2023-05-03T09:01:00,mnr,16.91
2023-05-03T09:02:00,mnr,17.13
2023-05-03T09:03:00,mnr,17.14
2023-05-03T09:04:00,mnr,16.88
2023-05-03T09:05:00,mnr,17.79
2023-05-03T09:06:00,mnr,17.70
2023-05-03T09:07:00,mnr,16.87
2023-05-03T09:08:00,mnr,16.89
2023-05-03T09:09:00,mnr,17.29
2023-05-03T09:10:00,mnr,16.86
2023-05-03T09:11:00,mnr,16.78
2023-05-03T09:12:00,mnr,16.79
2023-05-03T09:13:00,mnr,17.26
2023-05-03T09:14:00,mnr,17.40
2023-05-03T09:15:00,mnr,17.32
2023-05-03T09:16:00,mnr,17.37
2023-05-03T09:17:00,mnr,17.51
2023-05-03T09:18:00,mnr,17.46
2023-05-03T09:19:00,mnr,17.49
2023-05-03T09:20:00,mnr,17.39
2023-05-03T09:21:00,mnr,17.34
2023-05-03T09:22:00,mnr,17.33
2023-05-03T09:23:00,mnr,17.68
2023-05-03T09:24:00,mnr,17.26
2023-05-03T09:25:00,mnr,17.29
2023-05-03T09:26:00,mnr,17.43
2023-05-03T09:27:00,mnr,18.21
2023-05-03T09:28:00,mnr,17.36
2023-05-03T09:29:00,mnr,17.45
2023-05-03T09:30:00,mnr,18.46
2023-05-03T09:31:00,mnr,17.86
2023-05-03T09:32:00,mnr,28.58
2023-05-03T09:33:00,mnr,17.49
2023-05-03T09:34:00,mnr,12.94
2023-05-03T09:35:00,mnr,20.17
2023-05-03T09:36:00,mnr,27.75
2023-05-03T09:37:00,mnr,18.11
2023-05-03T09:38:00,mnr,29.77
2023-05-03T09:39:00,mnr,18.51
2023-05-03T09:40:00,mnr,16.06
2023-05-03T09:41:00,mnr,18.33
2023-05-03T09:42:00,mnr,17.88
2023-05-03T09:43:00,mnr,19.19
2023-05-03T09:44:00,mnr,28.33
2023-05-03T09:45:00,mnr,19.13
2023-05-03T09:46:00,mnr,29.19
2023-05-03T09:47:00,mnr,20.02
2023-05-03T09:48:00,mnr,19.73
2023-05-03T09:49:00,mnr,19.58
2023-05-03T09:50:00,mnr,20.02
2023-05-03T09:51:00,mnr,19.51
2023-05-03T09:52:00,mnr,19.44
2023-05-03T09:53:00,mnr,19.44
2023-05-03T09:54:00,mnr,19.58
2023-05-03T09:55:00,mnr,19.77
2023-05-03T09:56:00,mnr,19.62
2023-05-03T09:57:00,mnr,19.77
2023-05-03T09:58:00,mnr,19.98
2023-05-03T09:59:00,mnr,19.74
2023-05-03T10:00:00,mnr,19.74
2023-05-03T10:01:00,mnr,19.61
2023-05-03T10:02:00,mnr,19.62
2023-05-03T10:03:00,mnr,19.78
2023-05-03T10:04:00,mnr,19.89
2023-05-03T10:05:00,mnr,20.88
2023-05-03T10:06:00,mnr,19.86
2023-05-03T10:07:00,mnr,20.73
2023-05-03T10:08:00,mnr,20.79
2023-05-03T10:09:00,mnr,20.85
2023-05-03T10:10:00,mnr,21.16
2023-05-03T10:11:00,mnr,19.96
2023-05-03T10:12:00,mnr,19.91
2023-05-03T10:13:00,mnr,19.92
2023-05-03T10:14:00,mnr,19.91
2023-05-03T10:15:00,mnr,21.23
2023-05-03T10:16:00,mnr,19.88
2023-05-03T10:17:00,mnr,19.89
2023-05-03T10:18:00,mnr,20.12
2023-05-03T10:19:00,mnr,20.07
2023-05-03T10:20:00,mnr,20.07
2023-05-03T10:21:00,mnr,20.16
2023-05-03T10:22:00,mnr,20.18
2023-05-03T10:23:00,mnr,20.30
2023-05-03T10:24:00,mnr,20.25
2023-05-03T10:25:00,mnr,20.15
2023-05-03T10:26:00,mnr,20.30
2023-05-03T10:27:00,mnr,20.40
2023-05-03T10:28:00,mnr,20.31
2023-05-03T10:29:00,mnr,20.41
2023-05-03T10:30:00,mnr,20.34
2023-05-03T10:31:00,mnr,20.15
2023-05-03T10:32:00,mnr,20.20
2023-05-03T10:33:00,mnr,20.07
2023-05-03T10:34:00,mnr,20.01
2023-05-03T10:35:00,mnr,20.41
2023-05-03T10:36:00,mnr,30.59
2023-05-03T10:37:00,mnr,20.87
2023-05-03T10:38:00,mnr,20.31
2023-05-03T10:39:00,mnr,20.52
2023-05-03T10:40:00,mnr,20.43
2023-05-03T10:41:00,mnr,20.69
2023-05-03T10:42:00,mnr,20.69
2023-05-03T10:43:00,mnr,20.55
2023-05-03T10:44:00,mnr,20.64
2023-05-03T10:45:00,mnr,20.55
2023-05-03T10:46:00,mnr,20.48
2023-05-03T10:47:00,mnr,21.18
2023-05-03T10:48:00,mnr,20.62
2023-05-03T10:49:00,mnr,20.22
2023-05-03T10:50:00,mnr,20.21
2023-05-03T10:51:00,mnr,20.90
2023-05-03T10:52:00,mnr,20.34
2023-05-03T10:53:00,mnr,20.98
2023-05-03T10:54:00,mnr,20.40
2023-05-03T10:55:00,mnr,20.03
2023-05-03T10:56:00,mnr,20.02
2023-05-03T10:57:00,mnr,20.00
2023-05-03T10:58:00,mnr,20.02
2023-05-03T10:59:00,mnr,20.25
2023-05-03T11:00:00,mnr,20.18
2023-05-03T11:01:00,mnr,20.77
2023-05-03T11:02:00,mnr,28.42
2023-05-03T11:03:00,mnr,19.01
2023-05-03T11:04:00,mnr,15.53
2023-05-03T11:05:00,mnr,19.73
2023-05-03T11:06:00,mnr,19.02
2023-05-03T11:07:00,mnr,20.44
2023-05-03T11:08:00,mnr,20.03
2023-05-03T11:09:00,mnr,20.00
2023-05-03T11:10:00,mnr,19.59
2023-05-03T11:11:00,mnr,18.22
2023-05-03T11:12:00,mnr,18.22
2023-05-03T11:13:00,mnr,18.53
2023-05-03T11:14:00,mnr,19.78
2023-05-03T11:15:00,mnr,15.95
2023-05-03T11:16:00,mnr,18.80
2023-05-03T11:17:00,mnr,18.53
2023-05-03T11:18:00,mnr,19.20
2023-05-03T11:19:00,mnr,19.33
2023-05-03T11:20:00,mnr,19.88
2023-05-03T11:21:00,mnr,20.63
2023-05-03T11:22:00,mnr,20.45
2023-05-03T11:23:00,mnr,20.40
2023-05-03T11:24:00,mnr,19.55
2023-05-03T11:25:00,mnr,19.91
2023-05-03T11:26:00,mnr,18.22
2023-05-03T11:27:00,mnr,18.20
2023-05-03T11:28:00,mnr,18.17
2023-05-03T11:29:00,mnr,20.07
2023-05-03T11:30:00,mnr,19.77
2023-05-03T11:31:00,mnr,20.42
2023-05-03T11:32:00,mnr,19.82
2023-05-03T11:33:00,mnr,17.95
2023-05-03T11:34:00,mnr,18.82
2023-05-03T11:35:00,mnr,17.93
2023-05-03T11:36:00,mnr,17.87
2023-05-03T11:37:00,mnr,18.51
2023-05-03T11:38:00,mnr,17.88
2023-05-03T11:39:00,mnr,17.95
2023-05-03T11:40:00,mnr,18.02
2023-05-03T11:41:00,mnr,18.10
2023-05-03T11:42:00,mnr,20.20
2023-05-03T11:43:00,mnr,19.64
2023-05-03T11:44:00,mnr,19.67
2023-05-03T11:45:00,mnr,18.28
2023-05-03T11:46:00,mnr,18.02
2023-05-03T11:47:00,mnr,17.93
2023-05-03T11:48:00,mnr,18.06
2023-05-03T11:49:00,mnr,17.96
2023-05-03T11:50:00,mnr,17.92
2023-05-03T11:51:00,mnr,18.75
2023-05-03T11:52:00,mnr,17.94
2023-05-03T11:53:00,mnr,17.90
2023-05-03T11:54:00,mnr,17.94
2023-05-03T11:55:00,mnr,18.73
2023-05-03T11:56:00,mnr,17.96
2023-05-03T11:57:00,mnr,18.57
2023-05-03T11:58:00,mnr,17.93
2023-05-03T11:59:00,mnr,17.96
2023-05-03T12:00:00,mnr,18.03
2023-05-03T12:01:00,mnr,17.90
2023-05-03T12:02:00,mnr,17.79
2023-05-03T12:03:00,mnr,17.87
2023-05-03T12:04:00,mnr,17.92
2023-05-03T12:05:00,mnr,17.92
2023-05-03T12:06:00,mnr,17.94
2023-05-03T12:07:00,mnr,17.89
2023-05-03T12:08:00,mnr,17.88
2023-05-03T12:09:00,mnr,18.71
2023-05-03T12:10:00,mnr,21.49
2023-05-03T12:11:00,mnr,29.04
2023-05-03T12:12:00,mnr,17.30
2023-05-03T12:13:00,mnr,17.28
2023-05-03T12:14:00,mnr,17.86
2023-05-03T12:15:00,mnr,17.97
2023-05-03T12:16:00,mnr,18.34
2023-05-03T12:17:00,mnr,17.60
2023-05-03T12:18:00,mnr,17.30
2023-05-03T12:19:00,mnr,17.20
2023-05-03T12:20:00,mnr,18.06
2023-05-03T12:21:00,mnr,17.19
2023-05-03T12:22:00,mnr,17.32
2023-05-03T12:23:00,mnr,17.41
2023-05-03T12:24:00,mnr,17.66
2023-05-03T12:25:00,mnr,17.12
2023-05-03T12:26:00,mnr,17.01
2023-05-03T12:27:00,mnr,18.38
2023-05-03T12:28:00,mnr,18.41
2023-05-03T12:29:00,mnr,18.33
2023-05-03T12:30:00,mnr,16.45
2023-05-03T12:31:00,mnr,16.90
2023-05-03T12:32:00,mnr,16.70
2023-05-03T12:33:00,mnr,16.65
2023-05-03T12:34:00,mnr,16.63
2023-05-03T12:35:00,mnr,16.54
2023-05-03T12:36:00,mnr,16.58
2023-05-03T12:37:00,mnr,16.53
2023-05-03T12:38:00,mnr,16.59
2023-05-03T12:39:00,mnr,16.82
2023-05-03T12:40:00,mnr,17.13
2023-05-03T12:41:00,mnr,18.15
2023-05-03T12:42:00,mnr,19.34
2023-05-03T12:43:00,mnr,16.68
2023-05-03T12:44:00,mnr,17.08
2023-05-03T12:45:00,mnr,25.04
2023-05-03T12:46:00,mnr,16.57
2023-05-03T12:47:00,mnr,16.23
2023-05-03T12:48:00,mnr,16.33
2023-05-03T12:49:00,mnr,16.28
2023-05-03T12:50:00,mnr,17.27
2023-05-03T12:51:00,mnr,16.22
2023-05-03T12:52:00,mnr,16.23
2023-05-03T12:53:00,mnr,27.15
2023-05-03T12:54:00,mnr,16.14
2023-05-03T12:55:00,mnr,16.17
2023-05-03T12:56:00,mnr,16.16
2023-05-03T12:57:00,mnr,16.10
2023-05-03T12:58:00,mnr,16.09
2023-05-03T12:59:00,mnr,16.14
2023-05-03T13:00:00,mnr,16.02
2023-05-03T13:01:00,mnr,15.97
2023-05-03T13:02:00,mnr,16.19
2023-05-03T13:03:00,mnr,15.84
2023-05-03T13:04:00,mnr,15.84
2023-05-03T13:05:00,mnr,15.91
2023-05-03T13:06:00,mnr,16.34
2023-05-03T13:07:00,mnr,16.24
2023-05-03T13:08:00,mnr,16.31
2023-05-03T13:09:00,mnr,17.35
2023-05-03T13:10:00,mnr,17.83
2023-05-03T13:11:00,mnr,16.58
2023-05-03T13:12:00,mnr,16.59
2023-05-03T13:13:00,mnr,16.63
2023-05-03T13:14:00,mnr,17.06
2023-05-03T13:15:00,mnr,17.05
2023-05-03T13:16:00,mnr,17.39
2023-05-03T13:17:00,mnr,17.01
2023-05-03T13:18:00,mnr,17.06
2023-05-03T13:19:00,mnr,17.40
2023-05-03T13:20:00,mnr,17.79
2023-05-03T13:21:00,mnr,17.15
2023-05-03T13:22:00,mnr,16.79
2023-05-03T13:23:00,mnr,17.01
2023-05-03T13:24:00,mnr,16.90
2023-05-03T13:25:00,mnr,16.85
2023-05-03T13:26:00,mnr,17.02
2023-05-03T13:27:00,mnr,17.08
2023-05-03T13:28:00,mnr,16.94
2023-05-03T13:29:00,mnr,13.51
2023-05-03T13:30:00,mnr,18.38